Tracking 29892 objects as of 21-Nov-2024
HD Live streaming from Space Station
objects crossing your sky now

CZ-3B DEB

Track CZ-3B DEB now!


NORAD ID: 42464
Int'l Code: 2010-042AF
Perigee: 1,018.5 km
Apogee: 42,816.9 km
Inclination: 24.9 °
Period: 789.2 minutes
Semi major axis: 28288 km
RCS: Unknown
Launch date: September 4, 2010
Source: People's Republic of China (PRC)
Launch site: Xichang Space Center, China (XSC)

Note: This is SATELLITE DEBRIS
Your satellite tracking list
Your tracking list is empty




NASA's NSSDC Master Catalog

Two Line Element Set (TLE):
1 42464U 10042AF  24324.92768884 -.00000233  00000-0  00000-0 0  9993
2 42464  24.9128  49.4351 7387841 168.0067 231.6516  1.82466659 72044
Source of the keplerian elements: AFSPC